Location: Conflans
(47.8163°N, 6.2099°E)
Time: 03:43:35
(UTC+00:00)

Daily predictions for brighter satellites

Satellite Brightness Start Highest point End
(mag) Time Altitude Azimuth Time Altitude Azimuth Time Altitude Azimuth
Cosmos 2082 Rocket 4.5 01:29:19 20° NE 01:29:19 20° NE 01:31:01 10° NE
CENTAUR R/B 4.5 01:40:37 10° NW 01:47:13 32° NNE 01:54:41 10° E
CZ-2D R/B 4.4 02:07:15 10° N 02:08:22 16° N 02:08:22 16° N
MSX 4.4 02:33:45 10° NNE 02:38:23 53° NE 02:38:23 53° NE
Lacrosse 5 3.3 02:42:08 36° ENE 02:42:08 36° ENE 02:45:42 10° E
Cosmos 2360 Rocket 3.0 02:41:57 10° NNW 02:47:28 48° NE 02:52:56 10° SE
Resurs 1-4 Rocket 4.4 02:46:05 10° N 02:47:06 14° NNW 02:47:06 14° NNW
ARIANE 5 R/B 3.5 02:50:06 10° NNE 02:53:20 41° NNE 02:53:20 41° NNE
CZ-2C R/B 3.6 02:55:08 10° NNE 02:59:33 36° E 02:59:46 36° ESE
Cosmos 2333 Rocket 3.7 03:03:42 10° NNW 03:09:00 36° NE 03:14:17 10° ESE
Cosmos 2082 Rocket 3.6 03:11:10 26° NNW 03:11:10 26° NNW 03:14:48 10° NNE
H-2A R/B 4.5 03:07:13 10° ESE 03:10:24 21° ENE 03:13:34 10° NNE
Spot 4 Rocket 4.2 03:07:29 10° NNE 03:12:07 70° NE 03:12:07 70° NE
ADEOS II 3.9 03:09:04 10° N 03:11:05 20° NNW 03:11:05 20° NNW
USA 267 3.3 03:10:03 10° NE 03:16:30 63° NNW 03:17:26 57° WNW
IDEFIX/ARIANE 42P 3.6 03:13:41 10° N 03:16:53 34° NNW 03:16:53 34° NNW
NOSS 3-2 (A) 4.1 03:14:52 10° NW 03:22:19 79° NE 03:30:48 10° SE
BREEZE-M DEB (TANK) 3.5 03:22:53 70° SE 03:22:53 70° SE 03:25:48 10° ENE
Cosmos 1553 Rocket 3.9 03:26:48 68° WSW 03:27:18 71° W 03:33:34 10° N
Cosmos 1417 Rocket 4.4 03:29:15 61° SW 03:30:22 77° W 03:36:45 10° N
Cosmos 2219 Rocket 3.3 03:26:55 10° NNW 03:32:19 43° NE 03:37:43 10° SE
COSMOS 2487 4.2 03:35:20 28° ESE 03:35:30 28° ESE 03:38:29 10° NE
CENTAUR R/B 3.4 03:31:17 10° NW 03:39:17 73° NE 03:48:09 10° SE
PAYLOAD A 4.0 03:34:11 10° NNE 03:39:31 88° WNW 03:40:51 53° SSW
COSMOS 2428 3.9 03:34:31 10° NNW 03:39:58 43° NE 03:45:23 10° SE
Cosmos 1606 3.5 03:42:18 40° SE 03:43:12 50° E 03:47:00 10° NNE
Cosmos 2315 Rocket 4.4 03:38:27 10° S 03:44:32 62° E 03:50:39 10° NNE
PSLV R/B 3.7 03:41:56 10° NNE 03:46:20 72° ESE 03:47:30 47° S
BREEZE-M DEB (TANK) 4.4 03:50:58 19° NE 03:50:58 19° NE 03:51:41 10° NE
BREEZE M DEB (TANK) 2.5 03:51:34 53° NE 03:51:34 53° NE 03:55:30 10° E
Lacrosse 4 Rocket 1.6 03:51:57 61° S 03:51:57 61° S 03:55:42 10° SSE
USA 234 3.8 03:46:01 10° SSE 03:51:15 35° SW 03:51:15 35° SW
ISS -3.0 03:58:45 48° NNE 03:58:45 48° NNE 04:01:58 10° E
ATLAS 5 CENTAUR R/B 3.9 03:56:21 10° SSE 03:59:10 19° ESE 04:02:11 10° ENE
Cosmos 1805 Rocket 3.6 03:54:58 10° N 03:59:28 80° E 04:03:55 10° SSE
Cosmos 1743 Rocket 3.9 03:56:10 10° NNW 03:59:51 49° WNW 03:59:51 49° WNW
NOSS 3-2 (C) 4.1 03:55:29 10° NW 04:02:59 85° NE 04:11:31 10° SE
Cosmos 2322 3.7 03:57:26 10° NNW 04:03:10 85° ENE 04:08:50 10° SSE
Cosmos 1992 Rocket 3.9 03:58:38 10° NNW 04:03:45 58° WSW 04:08:50 10° S
Cosmos 2221 3.2 04:04:41 37° NW 04:04:41 37° NW 04:08:03 10° N
COSMO-SKYMED 1 4.2 04:01:48 10° SE 04:05:47 36° ENE 04:09:47 10° N
SL-27 R/B 4.2 04:08:12 22° NNW 04:08:12 22° NNW 04:10:02 10° N
Cosmos 1933 4.5 04:03:30 10° SSE 04:07:20 44° E 04:11:12 10° NNE
FENGYUN 3A 3.6 04:04:43 10° NNE 04:10:12 89° ESE 04:15:39 10° SSW
BREEZE-M DEB (TANK) 3.4 04:08:38 37° WNW 04:10:25 81° NNE 04:23:57 10° E
Cosmos 2344 3.5 04:06:15 29° SW 04:10:29 79° NW 04:18:37 10° NE
Cosmos 1833 4.1 04:12:28 30° SW 04:15:21 71° WNW 04:21:01 10° NNE
ATLAS 2AS CENTAUR R/B 4.5 04:09:04 10° S 04:16:01 35° ESE 04:22:56 10° NE
S3M 4.3 04:13:56 31° WSW 04:16:19 44° WNW 04:22:13 10° N
CBERS 1 LM4 rocket 4.4 04:13:27 10° NNE 04:18:17 81° ESE 04:23:01 10° SSW
Meteor 1-20 Rocket 4.4 04:13:51 10° N 04:19:33 75° ENE 04:25:20 10° SSE
Cosmos 1745 Rocket 4.5 04:14:03 10° NNW 04:19:43 36° W 04:23:55 17° SW
Landsat 5 3.4 04:18:43 33° SSW 04:20:01 48° W 04:23:49 10° NNW
Sich 1 2.9 04:16:51 10° NNW 04:21:17 81° W 04:25:40 10° S
Cosmos 1666 Rocket 3.9 04:18:34 10° N 04:22:55 66° E 04:27:17 10° SSE
CZ-2C R/B 4.1 04:20:10 10° N 04:22:37 24° NW 04:22:37 24° NW
Lacrosse 5 1.8 04:21:22 26° WNW 04:24:06 62° SW 04:29:04 10° SE
SJ-6F 4.3 04:20:35 10° N 04:24:46 78° WNW 04:28:32 13° SSW
ALOS 2.2 04:21:25 10° N 04:26:04 67° WNW 04:30:10 13° SSW
ADEOS 4.0 04:21:06 10° NNE 04:26:19 63° ESE 04:31:28 10° S
Meteor 1-31 Rocket 3.3 04:25:40 10° NNE 04:29:30 59° E 04:33:18 10° S
Cosmos 2184 Rocket 4.4 04:24:43 10° N 04:31:02 69° ENE 04:37:23 10° SSE
Cosmos 2360 Rocket 2.8 04:26:20 10° NW 04:31:15 31° WSW 04:36:09 10° SSW
Cosmos 1709 Rocket 4.2 04:25:48 10° NNW 04:31:54 49° W 04:37:59 10° SSW
Cosmos 192 4.4 04:28:18 10° NNW 04:33:17 85° ENE 04:38:15 10° SSE
ARIANE 5 R/B 4.1 04:30:39 10° NNW 04:33:38 16° NW 04:33:41 16° WNW
Cosmos 2333 4.3 04:28:25 10° NW 04:34:01 52° WSW 04:39:36 10° S
CZ-4B R/B 2.0 04:32:25 10° SSE 04:35:26 51° ENE 04:38:24 10° N
Meteor 1-4 Rocket 4.3 04:37:51 18° NW 04:37:51 18° NW 04:39:40 10° NNW
Cosmos 2237 Rocket 3.3 04:31:33 10° NNW 04:37:01 45° NE 04:42:26 10° SE
USA 276 2.3 04:36:12 34° SW 04:37:23 63° SSE 04:40:34 10° ENE
CZ-2C R/B 3.2 04:33:33 10° N 04:37:41 30° WNW 04:39:09 25° W
Cosmos 909 Rocket 4.1 04:31:34 10° SSW 04:38:14 83° ESE 04:44:32 10° NE
USA 238 DEB 4.0 04:36:13 10° NW 04:43:11 51° WSW 04:50:25 10° SSE
USA 238 4.0 04:36:19 10° NW 04:43:17 51° WSW 04:50:31 10° SSE
H-2A R/B 2.3 04:42:06 10° S 04:46:08 43° W 04:50:08 10° NNW
SeaSat 1 2.4 04:43:01 10° SSE 04:47:54 67° WSW 04:52:51 10° NNW
NOSS 0 Rocket 4.0 04:45:27 10° NNW 04:51:40 82° ENE 04:57:52 10° SSE
Cosmos 1484 Rocket 3.2 04:48:33 10° N 04:51:59 36° WNW 04:54:50 14° SW
ATLAS 3B R/B 3.6 04:45:24 10° NW 04:52:09 51° NE 04:59:10 10° ESE
Cosmos 1437 Rocket 3.0 04:49:12 10° S 04:53:17 78° E 04:57:19 10° NNE
Cosmos 2333 Rocket 2.5 04:47:56 10° NW 04:53:25 46° WSW 04:58:52 10° S
SKYMED 2 3.5 04:49:24 10° S 04:53:43 76° WSW 04:58:06 10° NNW
Cosmos 1151 Rocket 3.0 04:50:29 10° S 04:54:48 88° W 04:59:08 10° N
CZ-4C R/B 2.2 04:50:10 10° SSW 04:55:04 78° SE 05:01:04 10° NE
Cosmos 1633 Rocket 3.0 04:51:31 10° NNW 04:55:55 70° W 05:00:15 10° S
Cosmos 1782 2.9 04:52:47 10° S 04:56:44 82° E 05:00:42 10° N
Cosmos 2227 Rocket 4.5 04:52:28 10° SSE 04:57:10 27° ESE 05:01:53 10° NE
SL-16 R/B 4.2 04:53:24 10° NNW 04:58:17 28° NE 05:03:10 10° ESE
USA 267 4.1 04:52:55 10° ENE 04:58:55 41° N 05:04:48 11° WNW
MOS 1 Rocket 3.2 04:56:57 10° S 05:01:16 60° W 05:05:51 10° NNW
CZ-4B R/B 3.7 05:00:16 10° N 05:03:55 54° WNW 05:07:27 10° SSW
Cosmos 2251 Rocket 4.1 04:59:28 11° SW 05:04:08 38° WNW 05:09:09 10° N
Meteor 1-26 Rocket 4.3 05:01:11 10° SSW 05:06:54 81° WNW 05:12:51 10° N
H-2A R/B 4.5 04:56:34 12° WSW 05:07:49 25° SSW 05:12:24 10° SSE
COSMOS 2487 3.8 05:08:44 15° W 05:10:26 21° WNW 05:13:08 10° N
Meteor PRIRODA 3.8 05:07:44 10° NNE 05:11:29 80° ESE 05:15:13 10° S
Cosmos 1689 Rocket 3.1 05:09:35 10° SSE 05:12:19 47° ENE 05:15:04 10° N
Cosmos 2297 Rocket 3.5 05:07:12 10° S 05:12:31 44° ESE 05:17:52 10° NE
Nadezhda 1 Rocket 4.1 05:09:57 10° S 05:16:05 87° E 05:22:21 10° N
Cosmos 2219 Rocket 2.8 05:11:06 10° NW 05:16:11 35° WSW 05:21:16 10° S
Cosmos 1606 4.5 05:17:19 11° W 05:19:13 15° WNW 05:21:32 10° NNW
Cosmos 1980 3.7 05:15:49 10° NNW 05:21:32 87° WSW 05:27:12 10° SSE
COSMOS 2428 3.3 05:19:00 10° NW 05:24:10 36° WSW 05:29:19 10° S
Cosmos 1500 3.1 05:23:08 10° NNW 05:26:55 68° W 05:30:41 10° S
SAR-Lupe-1 4.1 05:23:53 10° SSE 05:27:28 85° ENE 05:31:05 10° NNW
Cosmos 407 Rocket 3.6 05:23:27 10° SW 05:28:32 55° WNW 05:33:36 10° NNE
CENTAUR R/B 3.8 05:22:25 10° NW 05:29:48 37° WSW 05:37:41 10° S
CZ-3 R/B 4.0 05:20:58 10° SW 05:29:52 19° SSW 05:34:30 10° SSE
Cosmos 1515 Rocket 3.5 05:26:14 10° SSW 05:30:34 79° W 05:34:57 10° N
Cosmos 1328 Rocket 3.8 05:26:46 10° SSW 05:30:53 45° WNW 05:35:03 10° N
Cosmos 2327 Rocket 4.5 05:28:22 10° NNW 05:34:24 63° W 05:40:23 10° S
